Location: *
(51.1248°S, 108.4023°W)
Time: 06:43:21
(UTC+00:00)

Cosmos 2228 Rocket - Visible Passes

Search period start: 26 October 2021 00:00
Search period end: 05 November 2021 00:00
Orbit: 617 x 652 km, 82.5° (Epoch: 25 October)

Date Brightness Start Highest point End Pass type
(mag) Time Alt. Az. Time Alt. Az. Time Alt. Az.
26 Oct 5.0 05:17:34 10° SSE 05:20:58 20° ESE 05:21:38 19° ESE visible
26 Oct 3.5 06:55:01 10° SSW 06:59:07 58° WSW 06:59:07 58° WSW visible
27 Oct 4.2 05:39:23 10° S 05:43:38 33° ESE 05:43:54 33° ESE visible
27 Oct 4.3 07:17:38 10° SSW 07:21:23 33° WSW 07:21:23 33° WSW visible
28 Oct 3.4 06:01:31 10° S 06:06:09 60° ESE 06:06:11 60° E visible
28 Oct 5.1 07:40:39 10° SW 07:43:40 19° W 07:43:40 19° W visible
29 Oct 5.1 04:46:39 10° SSE 04:49:44 17° ESE 04:50:59 16° E visible
29 Oct 3.2 06:23:51 10° SSW 06:28:28 74° W 06:28:28 74° W visible
29 Oct 5.7 08:05:14 10° WSW 08:05:49 10° WSW 08:05:57 10° W visible
30 Oct 4.4 05:08:21 10° S 05:12:26 29° ESE 05:13:16 27° E visible
30 Oct 4.0 06:46:24 10° SSW 06:50:45 39° W 06:50:45 39° W visible
31 Oct 3.5 05:30:25 10° S 05:34:59 51° ESE 05:35:35 48° E visible
31 Oct 4.9 07:09:16 10° SW 07:12:51 22° W 07:13:04 22° W visible
01 Nov 5.3 04:15:49 10° SSE 04:18:29 15° ESE 04:20:24 12° E visible
01 Nov 3.0 05:52:42 10° S 05:57:24 87° W 05:57:53 72° N visible
01 Nov 5.5 07:32:58 10° SW 07:34:50 12° W 07:35:23 12° W visible
02 Nov 4.6 04:37:22 10° S 04:41:14 25° ESE 04:42:44 21° E visible
02 Nov 3.7 06:15:11 10° SSW 06:19:41 47° W 06:20:13 44° WNW visible
03 Nov 3.8 04:59:21 10° S 05:03:49 43° ESE 05:05:04 35° ENE visible
03 Nov 4.7 06:37:57 10° SSW 06:41:49 26° W 06:42:33 25° WNW visible
04 Nov 5.4 03:45:06 10° SSE 03:47:13 13° ESE 03:49:21 10° E visible
04 Nov 3.1 05:21:34 10° S 05:26:16 80° E 05:27:25 51° NNE visible
04 Nov 5.4 07:01:17 10° SW 07:03:49 15° W 07:04:54 14° W visible
